Wind_Speed
11 10 14 13 14 17 20 18 14 10 16 15 16 10 15 21 12 10 12 15 19 20 20 20 22 22 22 24 25 27 31 36 39 39 41 41 40 38 37 35 35 35 36 36
6 13 15 18 20 20 22 20 22 18 19 7 16 16 13 18 15 18 19 18 19 22 22 25 25 23 24 23 23 22 23 24 25 28 32 34 35 35 34 33 32 31 30 28
4 1 8 12 12 12 19 19 17 17 11 8 9 8 10 18 20 22 27 28 25 23 24 29 30 27 27 25 23 21 20 20 20 19 20 22 23 24 25 24 22 21 23 23
5 6 9 8 5 11 14 22 18 15 7 9 9 15 20 23 23 28 31 29 35 31 29 30 33 28 27 25 21 19 17 16 16 15 16 16 14 13 14 17 18 18 19 20
4 7 15 17 4 1 4 18 13 18 18 14 18 17 27 32 32 28 31 29 30 32 29 27 27 26 22 19 16 14 13 12 10 8 8 9 10 11 13 14 14 16 16 17
5 7 6 4 4 1 1 10 19 22 14 10 13 9 14 24 22 20 19 26 27 23 18 23 24 23 21 17 15 13 12 12 10 9 8 8 8 11 12 11 12 15 12 9
11 9 10 5 6 2 3 5 29 28 28 19 7 9 11 11 11 10 9 13 17 17 19 23 23 23 22 20 19 18 16 13 10 7 6 6 5 5 8 8 7 8 9 12
7 6 9 5 3 2 2 12 28 35 28 18 19 8 4 5 5 7 5 3 10 18 21 19 22 24 27 25 22 18 15 11 7 5 4 5 6 7 6 8 10 12 11 11
7 3 6 7 3 5 6 11 27 32 31 17 22 14 7 11 10 11 10 11 15 22 30 27 23 22 27 25 18 17 15 15 13 11 10 10 11 12 14 12 11 11 9 9
1 3 6 12 22 22 19 22 33 30 25 18 17 15 8 9 11 13 15 19 26 31 34 33 27 26 26 24 21 17 17 16 14 11 13 15 15 15 13 11 8 8 6 6
6 10 9 14 5 21 30 33 26 18 9 5 15 10 5 13 15 17 22 25 27 30 30 33 29 29 26 23 20 19 20 20 16 16 16 16 15 14 12 12 9 7 6 4
8 12 10 18 17 22 24 25 22 10 10 5 6 4 3 11 14 20 24 26 27 28 29 29 25 25 21 19 17 16 19 20 20 19 19 17 14 15 13 9 5 3 3 3
13 15 12 24 23 20 14 18 10 5 13 11 10 7 13 15 17 25 26 27 30 31 31 30 27 25 22 18 18 19 20 22 21 17 15 14 12 10 9 8 5 4 4 5
20 21 18 24 14 20 19 13 6 6 8 13 19 19 16 20 23 21 23 26 27 28 28 29 28 28 25 22 21 22 23 20 17 15 12 10 10 9 8 7 5 6 7 5
34 24 27 27 24 23 15 10 8 3 7 13 18 21 21 24 25 27 28 28 28 30 32 32 32 31 26 22 21 21 18 16 14 13 12 11 10 9 8 7 7 7 5 2
20 14 15 17 20 18 12 10 11 9 10 14 18 24 26 28 28 29 30 31 33 36 34 32 32 28 23 19 18 18 17 16 14 13 12 11 10 9 8 8 7 7 8 10
16 14 14 16 14 13 12 11 10 12 15 16 19 23 26 29 32 32 34 34 34 34 31 28 29 23 21 19 18 18 16 14 12 11 10 9 8 8 8 8 8 9 10 11
18 19 20 23 24 20 13 11 12 15 19 22 26 28 32 34 38 38 36 34 33 33 29 27 25 23 22 19 16 15 13 11 9 9 9 8 9 9 8 9 9 9 10 10
15 16 16 13 10 14 16 17 18 20 24 28 32 37 39 39 39 38 35 33 32 33 30 25 22 20 18 16 12 12 10 10 10 10 10 10 9 10 10 10 10 10 10 10
9 9 8 7 7 12 18 20 25 29 32 37 41 42 42 40 37 36 32 33 30 30 25 21 17 15 14 14 11 12 11 10 11 11 11 11 11 11 11 11 11 10 10 11
3 2 4 8 13 16 20 25 29 33 36 37 42 44 42 39 35 33 32 33 27 23 20 17 14 14 14 13 12 12 12 12 12 13 13 13 12 11 10 10 10 11 12 13
5 9 13 17 21 24 23 26 31 37 39 39 41 41 41 37 32 30 28 28 24 18 16 15 15 14 14 13 14 14 14 14 14 13 13 12 10 10 10 11 11 12 13 13
12 16 19 21 24 26 27 29 33 35 40 38 39 38 37 35 31 31 29 23 20 15 14 15 16 15 14 14 15 15 14 13 12 12 11 10 10 10 10 11 12 12 12 13
18 20 25 28 31 35 37 35 36 37 37 36 33 31 30 29 27 24 24 21 17 15 16 17 16 15 14 14 14 13 12 11 11 10 10 10 10 10 10 11 11 12 13 14
24 28 30 33 36 37 37 36 36 34 33 31 27 25 22 20 21 24 20 20 17 15 16 17 15 14 13 13 12 11 10 10 10 10 10 9 9 10 10 11 12 13 15 16
26 28 30 33 36 36 36 34 33 30 28 27 24 22 22 21 21 20 18 17 16 15 15 15 13 12 11 10 10 9 9 9 10 9 9 9 9 10 11 12 13 14 16 18
28 30 31 32 30 30 29 28 27 25 22 22 26 22 20 20 18 17 16 16 15 14 13 12 11 10 9 9 9 9 9 9 8 8 9 9 10 11 11 12 14 16 17 19
Wind_Direction
260 260 279 270 286 287 265 253 254 260 240 226 242 243 242 246 253 247 247 253 242 228 226 225 227 227 232 235 234 231 234 237 240 239 243 247 250 251 254 257 261 265 267 271
271 243 246 274 290 282 265 267 271 271 260 229 240 247 267 261 252 251 252 263 251 238 226 225 229 225 227 235 239 236 234 237 239 240 244 250 255 259 262 264 265 268 269 270
269 351 266 268 236 293 276 257 243 238 229 212 234 259 261 272 276 270 271 266 253 248 241 234 229 228 228 231 236 238 238 236 237 239 241 245 249 251 255 260 263 263 267 266
278 303 244 248 295 351 295 262 245 248 220 209 223 256 264 267 275 285 273 269 257 251 248 244 237 230 229 228 229 230 232 234 232 231 231 237 245 249 250 253 251 253 256 257
256 255 288 293 191 101 66 303 309 266 251 239 252 261 272 272 274 288 277 264 259 255 252 243 230 220 213 207 203 201 201 204 202 195 195 203 217 231 238 239 245 247 247 251
218 268 265 346 59 147 68 292 0 346 327 297 270 243 250 260 278 293 286 265 259 254 240 221 208 200 189 183 174 163 151 149 155 162 174 186 207 218 227 227 251 247 234 224
234 243 272 308 303 307 219 310 320 315 316 326 297 257 288 291 284 293 302 269 239 220 199 192 185 178 165 157 149 145 141 143 146 157 170 181 201 230 239 239 218 195 185 166
213 237 258 253 223 267 270 325 318 306 294 315 331 327 338 26 69 58 33 165 169 166 156 150 153 156 141 135 135 137 135 136 138 148 169 196 202 182 163 160 163 156 160 157
208 211 226 243 262 181 296 307 292 283 279 332 345 355 35 57 54 78 110 112 138 145 136 134 135 138 128 123 131 126 118 115 123 135 138 139 143 142 141 145 149 152 163 164
259 237 264 288 295 295 311 298 304 296 270 290 348 6 44 75 89 106 119 135 141 138 129 130 131 128 123 125 119 111 116 118 118 124 131 134 136 137 142 145 150 145 133 111
260 268 285 292 304 321 325 319 318 305 246 279 310 15 74 110 114 121 131 139 143 131 126 127 130 123 127 128 117 118 117 115 125 132 134 134 126 113 110 104 102 101 93 69
257 268 269 275 288 313 317 319 315 287 193 172 175 333 338 118 130 141 146 143 134 131 135 126 127 127 129 120 128 131 124 129 128 130 123 116 110 108 100 97 91 55 20 358
263 278 262 288 298 308 307 302 294 240 217 182 156 155 149 131 138 142 139 141 139 139 138 138 140 134 128 135 143 139 132 132 128 124 117 112 107 101 99 79 60 37 18 10
274 279 278 283 290 301 308 290 238 145 153 166 159 155 160 142 140 145 140 139 138 136 133 134 129 123 125 129 130 126 124 124 123 117 111 106 99 98 98 98 81 61 52 55
273 270 271 282 287 302 286 246 222 190 148 138 147 150 151 146 138 132 134 136 138 136 128 127 123 117 120 126 125 121 118 114 109 106 100 96 96 97 93 87 77 65 62 37
288 292 277 279 290 293 265 235 215 179 159 146 147 147 147 144 136 132 132 131 130 121 119 118 115 116 118 118 116 111 105 99 100 99 99 97 92 83 72 55 40 27 13 5
309 298 296 291 296 283 264 245 218 185 161 148 138 139 141 138 134 130 127 126 122 116 115 116 110 113 110 106 104 103 103 103 98 99 93 79 66 53 45 37 32 22 10 1
293 285 280 277 277 270 241 208 176 166 156 151 145 144 139 137 130 128 126 127 124 116 111 110 113 112 107 103 100 99 99 97 92 79 71 64 55 50 46 39 34 27 19 9
293 294 289 289 256 221 203 184 171 168 154 149 146 141 138 134 132 129 129 126 119 114 109 109 107 106 105 102 97 93 89 83 80 75 66 61 57 55 49 47 44 40 31 21
293 289 283 249 206 193 180 171 164 157 153 151 145 139 135 133 133 131 130 119 115 112 113 111 110 107 101 97 92 88 83 80 77 77 72 67 64 62 59 55 49 40 30 20
292 226 181 170 157 157 164 159 159 153 148 150 145 138 132 130 132 131 124 116 112 114 114 113 107 101 97 94 90 87 86 83 80 79 77 73 68 64 58 50 41 31 22 12
142 144 140 140 140 134 139 143 148 145 143 141 136 134 134 131 130 124 118 117 116 114 114 111 102 96 93 92 90 88 86 83 82 79 75 72 66 58 47 37 27 18 9 2
134 132 130 132 133 131 134 137 138 138 134 132 131 131 129 127 126 125 117 112 112 113 113 103 97 95 93 90 87 84 82 80 77 74 69 62 53 42 32 22 13 6 1 358
130 130 129 133 135 133 128 131 133 132 130 129 127 125 126 123 117 112 110 112 114 117 108 102 100 97 92 88 85 82 81 76 69 63 55 46 36 26 17 10 5 1 358 356
125 128 131 134 130 126 129 130 129 127 124 123 123 121 117 118 118 117 115 114 112 110 107 103 99 95 90 85 81 76 71 64 56 48 39 29 19 12 7 4 1 358 354 351
124 123 125 125 126 130 131 132 127 127 127 122 119 119 119 116 113 115 113 110 110 107 102 99 95 89 83 76 70 63 56 48 40 30 19 11 7 4 2 360 357 353 350 347
127 127 126 125 127 130 130 128 127 127 127 128 123 121 118 115 113 111 110 109 107 103 98 93 88 81 72 63 55 45 37 29 19 10 4 1 359 358 357 354 351 350 348 345
Height
1449 1447 1444 1443 1440 1437 1433 1426 1422 1413 1409 1407 1403 1401 1397 1396 1396 1397 1398 1401 1403 1404 1406 1409 1413 1417 1420 1423 1426 1431 1435 1438 1441 1447 1451 1454 1457 1462 1465 1468 1469 1471 1472 1472
1453 1449 1444 1436 1426 1422 1420 1419 1414 1411 1405 1401 1397 1397 1396 1394 1395 1396 1395 1396 1398 1399 1401 1404 1406 1411 1414 1418 1421 1425 1428 1431 1436 1440 1444 1447 1451 1453 1456 1458 1459 1462 1462 1463
1441 1440 1439 1432 1421 1417 1409 1402 1398 1401 1398 1394 1394 1392 1392 1391 1392 1391 1392 1393 1394 1394 1395 1398 1400 1404 1408 1412 1416 1420 1424 1427 1430 1434 1438 1441 1444 1447 1450 1452 1454 1455 1456 1456
1448 1445 1436 1398 1403 1404 1404 1392 1391 1391 1391 1388 1386 1384 1384 1385 1385 1385 1383 1384 1387 1388 1389 1390 1393 1398 1402 1406 1410 1414 1419 1422 1425 1429 1432 1435 1438 1441 1444 1446 1447 1448 1449 1450
1448 1433 1414 1401 1395 1401 1407 1393 1394 1388 1385 1384 1383 1382 1374 1374 1377 1377 1374 1374 1376 1380 1381 1382 1386 1391 1396 1401 1406 1411 1415 1418 1422 1425 1428 1430 1433 1436 1439 1440 1442 1443 1444 1445
1445 1437 1417 1400 1400 1400 1396 1394 1395 1395 1388 1384 1381 1379 1361 1371 1369 1367 1364 1366 1368 1371 1373 1377 1381 1385 1390 1396 1401 1406 1411 1416 1420 1423 1426 1428 1430 1432 1435 1437 1439 1440 1440 1441
1443 1442 1416 1404 1401 1397 1401 1396 1396 1397 1393 1385 1377 1372 1368 1366 1362 1363 1359 1362 1362 1365 1369 1374 1378 1382 1386 1392 1399 1405 1409 1414 1418 1422 1425 1427 1430 1431 1433 1434 1436 1437 1439 1440
1434 1433 1421 1403 1401 1401 1400 1393 1397 1391 1390 1384 1377 1369 1366 1360 1361 1356 1358 1361 1363 1364 1368 1379 1379 1382 1387 1393 1401 1406 1408 1412 1417 1422 1425 1427 1429 1431 1432 1434 1437 1439 1441 1441
1412 1405 1406 1401 1398 1396 1394 1392 1391 1390 1384 1380 1375 1368 1363 1360 1358 1356 1361 1365 1366 1372 1371 1381 1386 1388 1389 1398 1404 1403 1408 1413 1416 1421 1425 1428 1429 1431 1432 1436 1438 1440 1442 1442
1406 1398 1396 1394 1392 1393 1391 1387 1380 1378 1376 1378 1374 1367 1363 1361 1362 1365 1363 1370 1375 1376 1375 1382 1387 1391 1393 1400 1402 1405 1408 1415 1418 1422 1426 1429 1431 1432 1434 1437 1439 1441 1443 1445
1395 1392 1393 1390 1389 1387 1385 1381 1375 1370 1371 1370 1373 1371 1367 1363 1365 1367 1370 1375 1380 1375 1381 1383 1389 1390 1400 1404 1402 1410 1411 1413 1420 1425 1428 1429 1432 1434 1435 1438 1442 1444 1445 1446
1391 1390 1391 1387 1388 1386 1383 1379 1373 1370 1368 1368 1368 1370 1368 1364 1363 1368 1374 1376 1377 1382 1388 1388 1394 1399 1405 1403 1407 1414 1414 1418 1422 1428 1430 1431 1433 1435 1438 1441 1444 1445 1446 1446
1387 1388 1387 1384 1385 1385 1383 1381 1375 1369 1368 1363 1364 1367 1369 1366 1369 1372 1376 1377 1381 1386 1388 1389 1397 1399 1401 1407 1410 1412 1414 1422 1426 1431 1433 1434 1435 1437 1438 1441 1443 1444 1445 1444
1382 1384 1382 1380 1381 1380 1377 1375 1372 1368 1367 1366 1364 1366 1369 1372 1376 1378 1379 1382 1384 1386 1389 1391 1391 1394 1403 1408 1413 1418 1421 1425 1429 1432 1435 1436 1436 1438 1440 1442 1443 1444 1444 1443
1378 1379 1378 1376 1376 1375 1374 1371 1371 1370 1373 1371 1368 1369 1370 1374 1379 1380 1382 1384 1386 1389 1392 1395 1397 1402 1409 1415 1419 1423 1425 1429 1431 1434 1436 1437 1438 1439 1440 1441 1442 1442 1443 1444
1375 1375 1374 1374 1374 1371 1370 1369 1370 1369 1372 1375 1374 1368 1374 1375 1380 1384 1387 1388 1391 1395 1397 1400 1403 1410 1414 1417 1421 1424 1428 1431 1434 1436 1437 1439 1439 1439 1439 1440 1440 1440 1441 1441
1371 1370 1370 1370 1368 1367 1367 1368 1369 1369 1371 1372 1373 1374 1375 1379 1383 1389 1391 1394 1397 1399 1402 1406 1408 1414 1418 1421 1424 1427 1430 1433 1435 1437 1438 1439 1438 1438 1438 1439 1439 1439 1438 1438
1370 1368 1368 1367 1365 1364 1365 1367 1368 1372 1370 1371 1372 1377 1379 1384 1387 1392 1396 1399 1400 1402 1408 1413 1416 1418 1421 1424 1426 1428 1432 1434 1435 1437 1437 1437 1437 1438 1439 1438 1437 1437 1437 1436
1367 1364 1362 1361 1360 1360 1361 1364 1366 1372 1371 1372 1375 1378 1382 1388 1393 1397 1401 1404 1407 1408 1414 1418 1422 1424 1424 1425 1427 1429 1432 1433 1435 1435 1436 1436 1437 1437 1437 1437 1437 1436 1436 1435
1365 1363 1361 1361 1360 1360 1363 1364 1367 1371 1374 1372 1375 1381 1385 1391 1397 1402 1407 1408 1412 1414 1419 1422 1424 1426 1427 1427 1428 1429 1431 1433 1434 1435 1436 1437 1438 1438 1438 1438 1437 1436 1435 1433
1364 1364 1363 1362 1363 1365 1368 1368 1369 1373 1374 1379 1377 1382 1390 1397 1403 1408 1410 1411 1418 1420 1422 1426 1427 1428 1429 1429 1428 1430 1432 1434 1435 1436 1437 1437 1439 1439 1439 1439 1437 1435 1433 1431
1367 1366 1365 1364 1365 1369 1372 1373 1375 1377 1381 1385 1385 1390 1395 1402 1406 1408 1415 1418 1421 1425 1427 1429 1429 1430 1431 1432 1431 1432 1434 1435 1437 1438 1438 1439 1440 1440 1439 1437 1435 1434 1432 1430
1370 1369 1369 1370 1371 1374 1378 1381 1385 1388 1388 1394 1397 1398 1402 1406 1411 1415 1417 1423 1424 1428 1431 1431 1431 1433 1434 1434 1434 1435 1436 1438 1439 1439 1439 1440 1440 1439 1437 1436 1434 1432 1431 1429
1375 1374 1375 1377 1378 1381 1384 1390 1391 1394 1397 1400 1406 1409 1411 1410 1416 1420 1421 1424 1428 1432 1433 1434 1434 1435 1436 1436 1436 1438 1439 1439 1439 1439 1439 1439 1439 1438 1437 1435 1433 1431 1429 1426
1381 1382 1383 1384 1384 1387 1392 1396 1399 1404 1404 1408 1413 1416 1417 1419 1420 1424 1427 1430 1433 1435 1435 1435 1437 1438 1438 1438 1439 1440 1440 1440 1440 1439 1439 1439 1438 1437 1435 1433 1431 1429 1427 1424
1388 1389 1390 1392 1393 1396 1399 1403 1403 1409 1412 1413 1417 1421 1423 1425 1427 1429 1431 1434 1436 1437 1438 1438 1439 1439 1440 1440 1441 1441 1441 1440 1439 1439 1439 1438 1436 1435 1433 1431 1429 1426 1424 1421
1395 1396 1398 1399 1402 1405 1407 1409 1411 1415 1419 1421 1421 1426 1428 1429 1432 1434 1436 1438 1439 1439 1439 1439 1440 1441 1441 1442 1442 1441 1440 1439 1440 1439 1438 1436 1434 1433 1430 1428 1426 1423 1421 1418